Wind_Speed
3 3 3 4 3 4 4 4 4 4 5 5 5 5 5 6 5 6 6 6 5 5 5 4 4 3 3 4 4 5 6 5 5 5 5 5 5 5 5 4 4 4 4 4 4 4 4 4 5
3 3 4 4 3 3 3 3 4 4 4 4 4 5 5 5 5 6 6 6 6 5 5 4 4 4 4 4 4 5 6 6 5 5 5 6 6 6 5 5 4 4 4 4 5 4 5 5 5
3 4 4 4 3 3 3 3 4 4 4 4 4 4 4 4 4 5 5 6 6 6 5 5 4 4 4 4 5 5 5 5 6 6 6 6 6 6 5 5 5 5 5 5 5 5 5 5 5
3 4 4 4 3 3 3 3 4 4 4 4 3 4 4 4 4 5 5 5 6 6 6 6 5 5 5 5 5 5 4 5 5 6 6 6 6 6 6 5 6 6 6 6 6 5 5 6 6
4 4 4 4 3 3 3 4 4 4 4 3 3 3 4 4 5 5 5 5 5 6 6 6 6 6 5 5 5 5 5 5 5 6 6 6 6 6 6 6 6 6 6 6 6 6 6 6 6
4 4 3 3 3 3 4 4 4 4 4 3 3 3 3 4 4 5 5 5 5 5 6 6 7 7 7 6 6 6 6 6 6 6 6 6 6 6 6 6 7 7 7 7 7 6 6 6 6
4 4 3 3 3 3 4 3 4 3 3 3 4 4 4 4 4 5 5 5 5 5 6 6 6 7 7 7 6 6 7 7 7 7 8 8 7 7 7 7 7 7 7 7 8 8 8 8 7
3 3 3 3 3 4 3 3 3 3 4 4 4 4 4 4 4 5 5 5 5 5 6 6 6 6 7 7 7 7 7 7 7 8 8 8 8 8 8 8 8 7 7 8 8 8 8 8 9
3 4 3 3 3 3 3 3 3 3 4 4 4 4 4 4 4 4 4 5 5 5 6 6 6 7 7 8 8 8 8 8 8 8 8 8 8 8 8 8 8 9 9 8 8 8 9 9 9
3 4 4 4 4 4 4 3 3 3 3 4 4 4 4 4 4 4 5 5 5 5 6 6 7 7 7 8 8 8 9 9 9 9 9 8 8 8 8 9 9 9 9 9 9 9 10 9 9
3 4 4 4 4 4 4 3 3 3 4 4 4 4 5 5 5 5 5 5 5 6 6 7 7 8 8 8 9 9 9 9 10 10 10 10 10 9 9 9 10 10 10 10 10 10 10 10 10
4 4 5 5 5 5 4 4 4 4 4 4 5 5 5 5 5 5 6 6 6 6 7 8 8 9 9 10 10 10 11 11 11 11 11 11 11 10 10 10 10 10 10 10 10 10 10 10 10
4 4 4 5 5 4 4 4 4 4 4 5 5 6 6 6 5 5 6 7 7 7 7 8 8 9 9 10 10 11 11 12 12 11 11 11 10 10 10 10 10 10 10 10 10 10 10 10 9
5 5 4 5 5 4 4 4 4 4 5 5 5 5 5 6 6 6 6 7 7 8 8 8 7 8 8 9 9 9 9 10 10 10 10 10 10 11 10 11 11 11 11 11 11 11 10 10 9
5 5 5 6 5 5 5 5 5 6 6 6 7 7 7 7 7 8 8 8 8 8 8 8 8 8 8 8 9 9 9 8 9 9 10 10 10 10 11 11 11 11 11 11 11 11 10 10 9
5 5 6 6 6 6 7 7 7 7 7 7 8 9 8 8 8 9 9 9 9 9 9 8 8 8 8 8 8 8 8 8 8 9 9 10 10 10 11 11 11 11 11 11 11 11 10 10 10
5 6 7 7 7 8 8 8 8 9 9 9 9 9 10 10 10 10 10 10 10 9 9 9 9 9 9 9 8 7 7 7 8 9 9 10 10 10 11 11 11 11 11 11 11 11 11 11 11
6 7 8 8 8 8 9 9 9 9 10 10 10 10 11 11 11 11 11 11 11 10 10 10 10 10 10 9 9 8 8 8 8 9 10 10 10 11 11 11 11 11 11 11 11 11 11 12 11
7 8 9 9 9 9 9 10 10 10 10 11 11 11 12 12 12 12 12 12 12 11 11 11 11 11 10 10 10 10 9 9 9 9 10 10 10 10 11 11 12 12 11 11 12 12 12 12 12
8 9 9 10 10 10 10 10 11 11 12 12 12 13 13 12 13 13 13 13 13 13 13 13 13 13 12 11 11 11 11 10 10 10 10 10 10 11 11 11 12 12 12 12 12 13 13 13 13
8 9 10 10 10 11 11 11 11 11 12 13 13 13 14 14 14 14 14 14 14 14 14 14 14 14 14 13 12 12 12 12 11 11 11 11 11 11 12 12 12 12 12 12 13 13 14 14 14
10 10 10 11 11 11 11 12 11 12 12 12 13 13 14 15 15 15 15 15 15 15 15 14 15 15 14 13 13 13 13 13 13 12 12 12 12 13 13 13 13 13 14 14 14 15 15 15 15
11 11 11 12 12 12 11 12 12 12 12 12 12 13 13 14 14 14 15 15 15 15 15 15 15 15 15 15 14 14 14 14 14 14 13 14 14 14 14 14 14 14 15 15 15 15 15 15 15
12 12 13 13 13 12 11 12 12 12 11 12 12 12 12 12 12 13 14 15 15 15 16 16 16 15 16 16 15 15 15 15 15 16 16 16 15 15 15 16 16 16 16 16 17 16 16 16 16
12 12 13 13 13 13 12 12 11 11 11 11 12 12 12 12 12 13 13 14 14 15 15 16 16 16 17 17 17 17 17 17 16 17 18 17 17 17 17 17 17 17 17 18 18 18 18 18 18
13 12 13 13 14 13 12 12 12 12 12 12 12 12 13 13 13 14 14 15 15 16 16 17 17 17 17 18 18 18 18 18 18 18 18 18 18 18 18 19 19 19 19 19 20 21 21 21 21
14 13 13 14 14 14 14 13 13 14 14 13 13 13 14 14 14 15 16 16 17 17 17 18 18 19 19 19 20 20 20 19 20 20 19 19 20 20 20 19 20 20 20 21 21 22 23 23 23
14 14 14 14 15 15 15 14 14 14 15 15 14 15 15 16 16 17 17 18 19 19 19 20 20 20 20 20 21 22 22 21 22 22 21 21 21 21 21 21 21 22 22 23 23 24 24 24 24
15 15 15 16 16 16 17 17 16 15 16 16 17 17 17 17 17 17 18 19 20 20 21 22 22 22 22 22 23 23 24 23 23 23 23 23 23 23 23 24 24 24 24 25 25 25 25 25 26
17 17 17 18 18 18 19 18 18 17 18 18 18 18 19 18 19 19 20 21 21 22 23 23 23 24 24 24 25 25 26 26 26 26 26 25 25 26 26 26 26 26 27 27 27 27 27 27 27
Wind_Direction
189 179 175 179 189 195 195 200 198 191 193 199 204 205 211 215 216 216 215 215 217 218 217 216 216 230 246 254 256 259 253 247 255 259 262 267 270 269 269 270 271 276 281 279 287 287 297 308 314
195 189 183 181 187 196 198 200 199 201 195 195 200 204 209 215 218 219 219 219 219 222 226 228 231 240 250 255 262 268 256 245 248 254 258 265 271 269 267 268 270 273 279 285 294 286 296 300 301
193 191 189 186 186 192 193 196 201 199 193 190 192 199 206 210 216 219 220 219 220 227 231 231 235 243 254 260 267 274 253 243 247 250 256 263 266 264 267 275 276 275 281 283 288 289 294 294 289
190 188 187 180 181 181 185 190 192 190 187 187 196 207 214 217 217 217 220 220 225 230 232 232 232 243 253 261 264 267 261 247 248 249 250 255 261 263 270 274 275 277 285 280 280 284 286 285 284
179 178 176 177 188 189 194 199 197 195 199 197 201 210 218 218 218 219 224 226 227 232 236 235 233 242 253 259 267 268 261 256 255 253 252 255 261 262 265 265 273 274 280 283 279 283 284 280 278
171 172 172 181 184 188 198 202 203 205 204 212 212 214 214 220 228 231 229 229 229 233 237 240 241 244 252 259 266 269 268 264 261 255 252 256 257 259 265 270 274 277 281 286 283 287 287 279 274
169 167 172 184 191 195 197 202 211 215 209 214 218 224 226 230 236 234 228 229 231 233 237 243 245 248 256 260 263 269 272 271 267 257 256 258 258 259 263 269 276 281 282 286 287 290 288 282 277
174 172 181 191 198 198 195 204 211 216 219 222 230 236 235 237 240 231 226 229 233 236 241 246 249 251 255 261 265 270 271 270 269 264 260 260 260 261 265 271 278 281 281 285 283 282 281 284 284
186 185 191 192 197 198 202 210 214 229 238 229 234 238 240 241 239 232 227 230 235 238 242 244 249 253 256 261 267 269 269 266 267 268 265 261 264 268 273 277 278 279 289 281 281 281 280 282 282
200 199 204 203 205 209 213 218 226 238 236 235 236 239 242 239 236 233 231 234 239 242 248 252 256 259 261 263 265 267 266 266 266 267 267 266 267 270 272 274 277 283 284 284 286 285 286 286 286
206 209 210 213 214 214 216 221 232 241 237 238 241 245 247 244 240 240 238 242 250 255 260 262 264 265 264 266 268 268 267 266 266 265 264 266 270 273 274 277 279 282 285 287 291 291 289 290 287
214 217 218 218 218 218 225 234 241 246 250 251 250 251 251 249 245 241 242 248 256 265 268 267 267 267 268 269 271 270 268 267 266 263 263 267 268 271 273 275 279 281 283 287 292 292 292 290 288
212 217 220 225 228 231 239 246 244 248 252 257 255 253 252 251 249 247 249 253 260 266 271 271 270 268 270 272 273 273 271 267 264 262 261 265 267 269 270 272 276 279 282 285 286 287 289 286 284
217 220 227 234 236 241 250 253 255 252 250 253 254 254 250 252 254 255 258 262 267 269 271 272 273 273 275 277 280 278 274 268 264 260 259 265 269 270 270 271 274 276 278 280 280 283 285 284 284
228 232 238 241 243 252 260 261 262 260 254 250 249 252 253 257 259 261 264 267 270 270 269 269 272 272 275 280 285 282 279 272 263 262 263 265 269 269 269 271 276 279 278 278 278 281 281 283 284
241 242 247 248 251 257 261 262 261 261 258 255 253 255 257 260 260 263 267 269 269 268 268 269 273 276 276 280 286 284 279 271 265 263 264 265 267 269 272 274 279 278 276 276 277 279 278 279 281
246 249 253 255 252 256 259 262 261 259 259 259 258 257 257 259 261 262 265 268 268 267 267 269 271 275 276 277 283 283 278 272 270 268 266 267 268 272 275 276 278 278 276 276 277 277 276 277 281
256 256 257 258 255 255 260 263 262 261 261 261 261 262 259 259 261 263 264 264 265 265 266 267 268 270 271 272 276 281 279 276 274 272 270 269 271 273 277 278 278 279 277 278 279 277 279 278 280
265 266 262 264 261 260 262 263 263 262 261 262 263 263 261 263 263 264 263 264 265 266 268 269 269 269 271 271 271 272 276 278 278 274 271 272 275 276 277 277 278 279 279 279 280 281 282 283 280
268 272 271 267 267 267 267 267 267 265 264 265 265 264 262 262 265 266 264 264 265 267 268 270 270 270 270 269 268 268 272 277 278 275 273 274 275 275 277 277 277 279 280 280 281 281 282 284 284
270 272 270 268 271 272 271 270 270 268 267 267 267 266 264 263 265 265 266 266 265 265 266 268 268 269 267 265 264 266 271 275 276 277 277 276 276 278 280 278 278 278 280 280 281 282 282 283 284
274 274 270 270 273 274 272 273 272 271 271 270 269 267 267 266 265 264 265 266 264 265 266 266 267 267 266 265 264 266 271 273 275 277 277 277 278 279 280 281 280 279 280 281 283 283 283 283 282
273 275 273 272 273 273 273 273 274 273 274 272 272 271 268 267 266 266 265 267 266 266 266 266 267 266 266 267 268 268 270 271 273 273 276 278 278 279 280 280 280 280 281 283 286 286 285 283 281
274 276 278 276 274 273 273 273 273 273 273 272 272 271 269 266 268 269 268 268 268 267 266 266 266 266 266 268 269 269 269 271 272 273 275 277 278 278 278 279 279 279 280 282 283 285 285 283 282
274 276 280 280 278 276 273 271 273 274 272 274 275 274 273 271 271 272 272 272 270 269 269 268 267 266 267 267 268 269 268 271 272 274 276 277 277 277 278 279 279 279 280 280 279 280 282 281 279
274 272 273 276 277 276 275 273 272 272 271 274 275 275 274 274 274 275 275 274 274 272 271 270 269 268 268 267 268 269 270 272 272 274 276 277 277 277 278 278 278 278 279 279 279 279 278 279 278
271 266 267 270 271 270 273 274 272 270 271 272 273 273 273 273 273 274 275 276 276 275 274 273 271 269 268 266 266 267 268 270 271 273 275 278 277 277 277 278 278 279 280 281 281 280 279 277 276
268 265 264 269 270 271 275 278 275 274 271 271 271 272 273 272 272 274 278 279 277 275 276 276 273 271 269 267 267 267 267 269 271 272 274 276 277 276 277 278 279 279 281 283 283 282 279 277 276
268 267 265 269 270 271 276 278 277 275 273 271 272 274 276 274 275 277 279 280 279 277 277 276 274 272 271 269 268 267 268 269 271 273 274 274 275 276 277 279 280 281 281 282 282 281 279 278 277
269 270 268 270 272 271 273 276 276 273 274 272 272 274 275 275 276 279 280 280 280 278 278 277 275 274 273 271 270 269 268 270 271 272 272 273 274 276 277 279 281 282 282 283 283 282 280 278 277
Height
5871 5872 5873 5874 5875 5875 5875 5875 5875 5876 5876 5876 5877 5877 5877 5878 5880 5882 5880 5878 5879 5878 5878 5879 5879 5878 5878 5878 5877 5876 5876 5875 5875 5875 5875 5875 5875 5874 5874 5873 5873 5872 5872 5871 5870 5870 5869 5869 5867
5871 5872 5873 5874 5874 5874 5875 5874 5875 5875 5875 5875 5875 5876 5877 5877 5877 5878 5877 5878 5878 5878 5878 5878 5878 5878 5877 5877 5876 5875 5874 5873 5874 5874 5874 5874 5873 5873 5873 5873 5872 5872 5871 5871 5870 5869 5869 5868 5868
5870 5871 5873 5873 5873 5874 5874 5874 5874 5874 5874 5875 5875 5875 5876 5876 5876 5876 5877 5877 5877 5877 5877 5877 5877 5877 5877 5876 5875 5874 5872 5872 5873 5873 5873 5873 5873 5872 5872 5872 5872 5871 5871 5870 5869 5869 5868 5868 5867
5870 5872 5873 5873 5872 5873 5873 5873 5873 5873 5874 5874 5875 5875 5875 5875 5875 5876 5876 5876 5876 5876 5876 5876 5876 5876 5876 5875 5874 5874 5873 5872 5872 5872 5872 5872 5872 5872 5872 5871 5871 5870 5870 5869 5868 5868 5868 5867 5867
5870 5871 5872 5872 5872 5872 5872 5872 5873 5873 5873 5873 5874 5874 5874 5874 5874 5875 5875 5875 5875 5875 5875 5875 5875 5875 5875 5874 5874 5873 5873 5872 5872 5872 5871 5871 5871 5871 5871 5870 5870 5869 5869 5868 5867 5867 5867 5866 5866
5870 5870 5871 5871 5872 5872 5872 5872 5872 5872 5873 5873 5873 5873 5873 5873 5873 5874 5874 5874 5874 5874 5874 5874 5874 5874 5874 5873 5873 5872 5872 5872 5871 5871 5871 5871 5870 5870 5870 5869 5869 5868 5868 5867 5867 5866 5866 5865 5864
5870 5870 5870 5871 5871 5871 5872 5871 5872 5872 5872 5872 5872 5873 5873 5873 5873 5873 5873 5873 5873 5873 5873 5873 5873 5873 5873 5873 5872 5872 5871 5871 5870 5870 5870 5870 5870 5869 5869 5868 5867 5867 5866 5866 5865 5865 5864 5864 5863
5868 5870 5869 5870 5870 5871 5871 5871 5871 5871 5872 5872 5872 5872 5872 5872 5872 5872 5872 5872 5872 5872 5872 5872 5872 5872 5872 5871 5871 5871 5870 5870 5869 5869 5869 5869 5868 5868 5867 5867 5866 5866 5865 5864 5864 5863 5863 5862 5861
5868 5870 5869 5870 5870 5870 5870 5871 5871 5871 5871 5871 5871 5871 5871 5871 5871 5871 5871 5871 5871 5871 5871 5871 5871 5870 5870 5870 5870 5869 5869 5869 5868 5868 5868 5867 5867 5866 5866 5866 5865 5865 5864 5863 5862 5861 5861 5861 5860
5867 5868 5869 5869 5869 5870 5870 5870 5870 5870 5870 5870 5870 5870 5870 5870 5870 5870 5870 5870 5870 5870 5870 5870 5870 5869 5869 5869 5868 5868 5868 5867 5867 5867 5866 5866 5866 5865 5865 5864 5864 5863 5863 5862 5861 5860 5860 5859 5858
5866 5867 5867 5868 5868 5869 5869 5869 5869 5869 5869 5869 5869 5869 5869 5869 5869 5869 5869 5869 5869 5869 5869 5869 5869 5868 5868 5867 5867 5866 5866 5866 5865 5865 5865 5865 5864 5864 5863 5863 5862 5861 5861 5860 5859 5859 5858 5857 5857
5865 5866 5866 5867 5867 5868 5868 5868 5868 5868 5868 5868 5868 5867 5867 5868 5868 5868 5868 5868 5868 5868 5868 5867 5867 5867 5866 5866 5865 5864 5864 5863 5863 5863 5863 5863 5862 5862 5862 5861 5861 5860 5859 5859 5858 5857 5856 5856 5855
5864 5864 5865 5866 5866 5866 5867 5867 5867 5867 5867 5867 5866 5866 5866 5867 5867 5867 5867 5867 5867 5867 5866 5866 5865 5865 5864 5864 5863 5862 5862 5861 5861 5861 5861 5861 5860 5860 5860 5859 5859 5858 5858 5857 5856 5855 5855 5854 5854
5863 5863 5864 5864 5865 5865 5865 5865 5865 5865 5865 5865 5865 5865 5865 5865 5866 5866 5866 5866 5866 5865 5865 5864 5864 5863 5863 5862 5861 5860 5859 5858 5858 5858 5858 5858 5858 5858 5858 5858 5857 5856 5856 5855 5854 5854 5853 5852 5852
5862 5863 5863 5863 5863 5863 5864 5864 5864 5864 5864 5864 5864 5864 5864 5864 5864 5864 5864 5864 5864 5864 5863 5863 5862 5861 5861 5860 5859 5858 5857 5856 5856 5856 5856 5856 5856 5856 5856 5856 5855 5855 5854 5853 5852 5852 5851 5851 5850
5861 5861 5862 5862 5861 5862 5864 5863 5862 5862 5862 5862 5862 5862 5862 5862 5862 5862 5862 5862 5862 5862 5861 5861 5860 5859 5859 5858 5857 5856 5855 5855 5854 5854 5854 5854 5854 5854 5854 5853 5853 5852 5852 5851 5850 5850 5849 5848 5848
5859 5860 5860 5860 5860 5860 5860 5860 5860 5860 5860 5860 5860 5860 5860 5860 5860 5860 5860 5860 5860 5859 5859 5859 5858 5857 5857 5856 5855 5855 5854 5853 5853 5852 5852 5852 5852 5852 5851 5851 5851 5850 5850 5849 5848 5848 5847 5846 5846
5858 5858 5858 5858 5858 5858 5858 5858 5858 5857 5857 5857 5857 5857 5857 5857 5857 5857 5857 5857 5857 5857 5857 5856 5856 5855 5854 5854 5854 5853 5852 5852 5851 5851 5850 5850 5850 5849 5849 5849 5848 5848 5847 5847 5846 5845 5844 5844 5843
5856 5856 5856 5856 5855 5855 5855 5855 5855 5855 5854 5854 5854 5854 5854 5854 5854 5854 5854 5854 5854 5854 5854 5854 5853 5853 5852 5852 5852 5851 5851 5850 5849 5849 5848 5848 5847 5847 5847 5846 5846 5845 5845 5844 5843 5843 5842 5841 5840
5853 5853 5853 5853 5852 5853 5852 5852 5852 5851 5851 5851 5851 5851 5851 5851 5851 5851 5851 5851 5851 5851 5851 5851 5850 5850 5850 5849 5849 5849 5849 5848 5847 5847 5846 5846 5845 5845 5844 5844 5843 5842 5842 5841 5841 5840 5839 5838 5837
5851 5851 5850 5850 5850 5849 5850 5850 5849 5848 5848 5847 5847 5847 5847 5847 5847 5847 5847 5847 5847 5848 5847 5847 5847 5847 5847 5846 5846 5846 5846 5845 5845 5844 5844 5843 5842 5842 5841 5841 5840 5840 5839 5838 5838 5837 5836 5835 5834
5848 5848 5847 5847 5847 5847 5847 5846 5846 5845 5844 5844 5843 5843 5843 5843 5843 5843 5843 5844 5844 5844 5844 5844 5844 5843 5843 5843 5843 5843 5843 5843 5842 5842 5841 5840 5840 5839 5838 5838 5837 5836 5836 5835 5834 5834 5833 5832 5831
5845 5844 5844 5844 5843 5843 5843 5843 5843 5841 5841 5840 5840 5839 5839 5839 5839 5839 5839 5840 5840 5840 5840 5840 5840 5840 5840 5840 5840 5840 5840 5839 5839 5838 5838 5837 5837 5836 5835 5834 5833 5833 5832 5831 5830 5830 5829 5828 5827
5841 5841 5840 5840 5840 5840 5840 5840 5840 5838 5837 5836 5836 5835 5835 5835 5835 5835 5835 5835 5835 5835 5835 5835 5836 5836 5836 5836 5836 5836 5836 5836 5835 5835 5834 5833 5833 5832 5831 5830 5830 5829 5828 5827 5826 5825 5825 5824 5823
5838 5838 5838 5837 5836 5837 5836 5836 5836 5834 5833 5833 5832 5832 5831 5831 5831 5830 5830 5831 5831 5831 5831 5831 5831 5831 5831 5831 5832 5832 5832 5831 5831 5831 5830 5829 5828 5828 5827 5826 5825 5824 5823 5822 5821 5821 5820 5819 5818
5834 5835 5835 5834 5834 5833 5832 5832 5833 5831 5830 5829 5829 5828 5828 5827 5827 5826 5826 5826 5826 5826 5826 5826 5826 5826 5826 5826 5827 5827 5827 5827 5826 5826 5825 5824 5824 5823 5822 5821 5820 5819 5818 5817 5816 5815 5815 5814 5813
5830 5830 5830 5830 5829 5828 5828 5829 5828 5827 5826 5825 5825 5824 5824 5823 5823 5822 5822 5822 5821 5821 5821 5821 5821 5821 5821 5821 5821 5821 5821 5821 5821 5820 5820 5819 5818 5818 5817 5816 5815 5814 5813 5812 5811 5809 5808 5807 5807
5826 5826 5825 5825 5824 5824 5824 5824 5824 5822 5821 5821 5821 5820 5819 5819 5819 5818 5818 5817 5816 5816 5816 5815 5815 5815 5815 5815 5815 5815 5815 5815 5815 5815 5814 5814 5813 5812 5811 5810 5809 5808 5807 5806 5804 5803 5802 5801 5800
5822 5822 5821 5821 5820 5820 5820 5822 5819 5818 5817 5816 5816 5815 5815 5814 5814 5813 5813 5812 5811 5810 5810 5810 5809 5809 5809 5809 5809 5809 5809 5809 5808 5808 5808 5807 5807 5806 5805 5804 5803 5802 5800 5799 5797 5795 5794 5793 5792
5817 5817 5817 5817 5816 5815 5815 5818 5813 5813 5812 5811 5810 5810 5809 5809 5808 5808 5807 5806 5805 5804 5804 5803 5803 5802 5802 5802 5802 5801 5801 5801 5801 5801 5801 5800 5800 5799 5798 5796 5795 5794 5792 5791 5790 5788 5787 5785 5784